Погода в Алге

Казахстан     49°53′48″N   57°19′42″E
темп.,
°C
ветер,
м/с
пор.,
м/с
влажн.,
%
обл.,
%
осадки,
мм/ч
давл.,
гПа
погр.,
м
2 марта, вт
вт223:00−17з599692 0.3 1022151
02:00−18з579880 0.0 1022124
05:00−20з4710088 0.1 1023113
08:00−22зюз46100100 0.0 1023102
11:00−19з599698 0.1 1024258
14:00−15зюз589294 0.0 1022336
17:00−13юз6119081 0.0 1021376
20:00−12юз7159483 0.0 1019367
3 марта, ср
ср323:00−8юз8169192 0.1 1017477
02:00−8юз81589100 0.0 1015418
05:00−4юз91691100 0.1 1013685
08:00−3юз101694100 0.3 1011749
11:00−2юз111694100 0.9 1010836
14:00−1юз111594100 0.8 1009977
17:000юз101495100 1.3 1007998
20:00−1юз81396100 1.0 1006739
4 марта, чт
чт423:00−2юз71494100 1.5 1006605
02:00−2юз71394100 0.2 1006527
05:00−4з6119499 0.5 1007419
08:00−8з7119498 0.1 1009338
11:00−9з6109398 0.1 1013405
14:00−8з71191100 0.0 1014543
17:00−8з61191100 0.1 1016508
20:00−11зюз6129271 0.0 1018254
5 марта, пт
пт523:00−8юз7159262 0.1 1019492
02:00−7юз9188699 0.1 1018509
05:00−6юз10198483 0.1 1018488
08:00−6юз11208520 0.0 1018484
11:00−4юз11198420 0.0 1018605
14:00−2юз1218811 0.0 1018895
17:00−2юз11188350 0.0 1018813
20:00−3юз9188594 0.0 1017603
6 марта, сб
сб623:00−4юз9178673 0.0 1018452
02:00−4юз8159487 0.1 1018400
05:00−2зюз6119391 0.1 1018305
08:00−3юз479682 0.1 1018209
11:000юз7109691 0.1 1018426
14:000ююз81398100 0.3 1017614
17:00+1юз81588100 0.3 1016591
20:00−1ююз8169398 0.0 1015468